| time (UTC) | temp F | wind direction | speed MPH | gust MPH | rain 1hr in | rain 24hr in | rain mn in | humidity % | barometer mb |
| 20260505204132 | 81 | 52 | 9.0 | 13.0 | 0.00 | 0.00 | 0.00 | 56 | 1016.9 |
| 20260505203628 | 81 | 73 | 6.0 | 10.0 | 0.00 | 0.00 | 0.00 | 56 | 1016.9 |
| 20260505203125 | 80 | 35 | 10.0 | 15.0 | 0.00 | 0.00 | 0.00 | 57 | 1016.9 |
| 20260505202621 | 81 | 70 | 9.0 | 11.0 | 0.00 | 0.00 | 0.00 | 56 | 1016.9 |
| 20260505202117 | 81 | 79 | 9.0 | 10.0 | 0.00 | 0.00 | 0.00 | 56 | 1016.9 |
| 20260505201613 | 82 | 91 | 6.0 | 8.0 | 0.00 | 0.00 | 0.00 | 54 | 1016.9 |
| 20260505201111 | 82 | 50 | 4.0 | 6.0 | 0.00 | 0.00 | 0.00 | 54 | 1017.2 |
| 20260505200609 | 81 | 55 | 5.0 | 7.0 | 0.00 | 0.00 | 0.00 | 57 | 1017.2 |
| 20260505200106 | 81 | 97 | 4.0 | 6.0 | 0.00 | 0.00 | 0.00 | 55 | 1017.2 |
| 20260505195602 | 80 | 46 | 8.0 | 9.0 | 0.00 | 0.00 | 0.00 | 57 | 1017.2 |
| 20260505195100 | 80 | 53 | 9.0 | 10.0 | 0.00 | 0.00 | 0.00 | 57 | 1017.2 |
| 20260505194556 | 81 | 77 | 2.0 | 5.0 | 0.00 | 0.00 | 0.00 | 56 | 1017.2 |
| 20260505194052 | 82 | 69 | 7.0 | 11.0 | 0.00 | 0.00 | 0.00 | 55 | 1017.5 |
| 20260505193549 | 82 | 52 | 9.0 | 10.0 | 0.00 | 0.00 | 0.00 | 57 | 1017.5 |
| 20260505193046 | 81 | 55 | 3.0 | 5.0 | 0.00 | 0.00 | 0.00 | 57 | 1017.5 |
| 20260505192545 | 82 | 49 | 4.0 | 7.0 | 0.00 | 0.00 | 0.00 | 55 | 1017.2 |
| 20260505192042 | 81 | 123 | 3.0 | 3.0 | 0.00 | 0.00 | 0.00 | 55 | 1017.5 |
| 20260505191540 | 82 | 61 | 7.0 | 9.0 | 0.00 | 0.00 | 0.00 | 56 | 1017.5 |
| 20260505191038 | 82 | 61 | 6.0 | 7.0 | 0.00 | 0.00 | 0.00 | 57 | 1017.5 |
| 20260505190532 | 82 | 3 | 4.0 | 7.0 | 0.00 | 0.00 | 0.00 | 55 | 1017.2 |
| 20260505190029 | 81 | 35 | 5.0 | 6.0 | 0.00 | 0.00 | 0.00 | 57 | 1017.9 |
| 20260505185525 | 82 | 43 | 6.0 | 7.0 | 0.00 | 0.00 | 0.00 | 57 | 1017.9 |
| 20260505185022 | 82 | 49 | 4.0 | 6.0 | 0.00 | 0.00 | 0.00 | 57 | 1017.5 |
| 20260505184519 | 82 | 31 | 5.0 | 8.0 | 0.00 | 0.00 | 0.00 | 55 | 1017.5 |
| 20260505184015 | 81 | 46 | 4.0 | 6.0 | 0.00 | 0.00 | 0.00 | 57 | 1017.9 |
| 20260505183512 | 82 | 78 | 1.0 | 2.0 | 0.00 | 0.00 | 0.00 | 54 | 1017.9 |
| 20260505183010 | 81 | 254 | 1.0 | 2.0 | 0.00 | 0.00 | 0.00 | 56 | 1017.9 |
| 20260505182506 | 81 | 136 | 3.0 | 3.0 | 0.00 | 0.00 | 0.00 | 56 | 1017.9 |
| 20260505182003 | 83 | 64 | 2.0 | 2.0 | 0.00 | 0.00 | 0.00 | 54 | 1017.9 |
| 20260505181459 | 82 | 72 | 5.0 | 7.0 | 0.00 | 0.00 | 0.00 | 55 | 1017.9 |
| 20260505180956 | 83 | 148 | 2.0 | 3.0 | 0.00 | 0.00 | 0.00 | 54 | 1018.2 |
| 20260505180452 | 83 | 48 | 10.0 | 11.0 | 0.00 | 0.00 | 0.00 | 56 | 1018.2 |
| 20260505175949 | 82 | 76 | 4.0 | 5.0 | 0.00 | 0.00 | 0.00 | 54 | 1018.2 |
| 20260505175445 | 82 | 105 | 4.0 | 5.0 | 0.00 | 0.00 | 0.00 | 56 | 1018.2 |
| 20260505174942 | 82 | 58 | 10.0 | 16.0 | 0.00 | 0.00 | 0.00 | 56 | 1017.9 |
| 20260505174439 | 82 | 73 | 5.0 | 6.0 | 0.00 | 0.00 | 0.00 | 56 | 1018.2 |
| 20260505173935 | 83 | 74 | 7.0 | 9.0 | 0.00 | 0.00 | 0.00 | 55 | 1017.9 |
| 20260505173432 | 82 | 196 | 1.0 | 1.0 | 0.00 | 0.00 | 0.00 | 55 | 1018.2 |
| 20260505172929 | 82 | 71 | 3.0 | 3.0 | 0.00 | 0.00 | 0.00 | 55 | 1018.6 |
| 20260505172428 | 82 | 151 | 2.0 | 3.0 | 0.00 | 0.00 | 0.00 | 55 | 1018.2 |
| 20260505171926 | 81 | 51 | 5.0 | 6.0 | 0.00 | 0.00 | 0.00 | 57 | 1018.2 |
| 20260505171424 | 80 | 67 | 7.0 | 10.0 | 0.00 | 0.00 | 0.00 | 58 | 1018.2 |
| 20260505170920 | 80 | 75 | 4.0 | 5.0 | 0.00 | 0.00 | 0.00 | 58 | 1018.6 |
| 20260505170417 | 80 | 62 | 2.0 | 2.0 | 0.00 | 0.00 | 0.00 | 58 | 1018.6 |
| 20260505165912 | 80 | 38 | 4.0 | 5.0 | 0.00 | 0.00 | 0.00 | 58 | 1018.9 |
| 20260505165409 | 79 | 57 | 3.0 | 3.0 | 0.00 | 0.00 | 0.00 | 59 | 1018.6 |
| 20260505164904 | 79 | 52 | 3.0 | 3.0 | 0.00 | 0.00 | 0.00 | 58 | 1018.9 |
| 20260505164401 | 79 | 38 | 3.0 | 3.0 | 0.00 | 0.00 | 0.00 | 58 | 1018.6 |
| 20260505163859 | 79 | 54 | 3.0 | 5.0 | 0.00 | 0.00 | 0.00 | 60 | 1018.6 |
| 20260505163358 | 79 | 53 | 4.0 | 5.0 | 0.00 | 0.00 | 0.00 | 59 | 1018.6 |
| 20260505162856 | 80 | 22 | 1.0 | 2.0 | 0.00 | 0.00 | 0.00 | 59 | 1018.6 |
| 20260505162351 | 79 | 32 | 3.0 | 3.0 | 0.00 | 0.00 | 0.00 | 60 | 1018.6 |
| 20260505161849 | 79 | 34 | 6.0 | 7.0 | 0.00 | 0.00 | 0.00 | 61 | 1018.9 |
| 20260505161346 | 79 | 71 | 3.0 | 3.0 | 0.00 | 0.00 | 0.00 | 60 | 1018.6 |
| 20260505160843 | 79 | 87 | 4.0 | 6.0 | 0.00 | 0.00 | 0.00 | 61 | 1018.6 |
| 20260505160341 | 80 | 37 | 3.0 | 3.0 | 0.00 | 0.00 | 0.00 | 59 | 1018.2 |
| 20260505153320 | 79 | 340 | 5.0 | 6.0 | 0.00 | 0.00 | 0.00 | 60 | 1018.6 |
| 20260505152816 | 80 | 53 | 7.0 | 8.0 | 0.00 | 0.00 | 0.00 | 61 | 1018.6 |
| 20260505152314 | 80 | 40 | 3.0 | 5.0 | 0.00 | 0.00 | 0.00 | 61 | 1018.9 |
| 20260505151808 | 80 | 48 | 8.0 | 10.0 | 0.00 | 0.00 | 0.00 | 61 | 1018.6 |
| 20260505151305 | 79 | 146 | 1.0 | 2.0 | 0.00 | 0.00 | 0.00 | 63 | 1018.6 |
| 20260505150802 | 79 | 40 | 4.0 | 6.0 | 0.00 | 0.00 | 0.00 | 67 | 1018.6 |
| 20260505150259 | 80 | 83 | 1.0 | 2.0 | 0.00 | 0.00 | 0.00 | 66 | 1018.6 |
| 20260505140223 | 76 | 55 | 1.0 | 2.0 | 0.00 | 0.00 | 0.00 | 76 | 1018.2 |
| 20260505130147 | 74 | 48 | 2.0 | 5.0 | 0.00 | 0.00 | 0.00 | 80 | 1018.2 |
| 20260505124631 | 73 | 53 | 5.0 | 7.0 | 0.00 | 0.00 | 0.00 | 83 | 1018.2 |
| 20260505124128 | 72 | 61 | 3.0 | 3.0 | 0.00 | 0.00 | 0.00 | 85 | 1018.2 |
| 20260505123623 | 71 | 71 | 3.0 | 3.0 | 0.00 | 0.00 | 0.00 | 86 | 1018.2 |
| 20260505123120 | 71 | 59 | 4.0 | 5.0 | 0.00 | 0.00 | 0.00 | 86 | 1018.2 |
| 20260505122617 | 71 | 74 | 2.0 | 2.0 | 0.00 | 0.00 | 0.00 | 86 | 1017.9 |
| 20260505122115 | 70 | 75 | 1.0 | 1.0 | 0.00 | 0.00 | 0.00 | 87 | 1018.2 |
| 20260505121611 | 70 | 38 | 3.0 | 3.0 | 0.00 | 0.00 | 0.00 | 88 | 1017.9 |
| 20260505121108 | 70 | 75 | 3.0 | 5.0 | 0.00 | 0.00 | 0.00 | 88 | 1017.9 |
| 20260505120604 | 69 | 52 | 4.0 | 6.0 | 0.00 | 0.00 | 0.00 | 89 | 1017.9 |
| 20260505120100 | 69 | 49 | 5.0 | 5.0 | 0.00 | 0.00 | 0.00 | 90 | 1017.9 |
| 20260505115554 | 69 | 49 | 3.0 | 3.0 | 0.00 | 0.00 | 0.00 | 90 | 1017.9 |
| 20260505115052 | 68 | 69 | 1.0 | 2.0 | 0.00 | 0.00 | 0.00 | 91 | 1018.2 |
| 20260505114549 | 68 | 84 | 1.0 | 1.0 | 0.00 | 0.00 | 0.00 | 92 | 1017.9 |
| 20260505114045 | 67 | 79 | 1.0 | 1.0 | 0.00 | 0.00 | 0.00 | 93 | 1017.9 |
| 20260505113542 | 66 | 64 | 2.0 | 2.0 | 0.00 | 0.00 | 0.00 | 94 | 1017.9 |
| 20260505113038 | 66 | 58 | 2.0 | 2.0 | 0.00 | 0.00 | 0.00 | 95 | 1017.5 |
| 20260505112534 | 65 | 52 | 2.0 | 2.0 | 0.00 | 0.00 | 0.00 | 96 | 1017.5 |
| 20260505112032 | 65 | 53 | 2.0 | 2.0 | 0.00 | 0.00 | 0.00 | 98 | 1017.2 |
| 20260505111526 | 64 | 72 | 0.0 | 0.0 | 0.00 | 0.00 | 0.00 | 99 | 1017.5 |
| 20260505111023 | 63 | 73 | 0.0 | 0.0 | 0.00 | 0.00 | 0.00 | 99 | 1017.2 |
| 20260505110519 | 63 | 89 | 0.0 | 0.0 | 0.00 | 0.00 | 0.00 | 99 | 1017.2 |
| 20260505101951 | 62 | 98 | 0.0 | 0.0 | 0.00 | 0.00 | 0.00 | 99 | 1017.2 |
| 20260505101444 | 62 | 97 | 0.0 | 0.0 | 0.00 | 0.00 | 0.00 | 99 | 1016.9 |
| 20260505100940 | 62 | 97 | 0.0 | 0.0 | 0.00 | 0.00 | 0.00 | 99 | 1017.2 |
| 20260505100438 | 62 | 98 | 0.0 | 0.0 | 0.00 | 0.00 | 0.00 | 99 | 1016.9 |
| 20260505095933 | 61 | 98 | 0.0 | 0.0 | 0.00 | 0.00 | 0.00 | 99 | 1016.9 |
| 20260505095430 | 62 | 98 | 0.0 | 0.0 | 0.00 | 0.00 | 0.00 | 99 | 1016.9 |
| 20260505094926 | 61 | 98 | 0.0 | 0.0 | 0.00 | 0.00 | 0.00 | 99 | 1016.9 |
| 20260505094423 | 61 | 99 | 0.0 | 0.0 | 0.00 | 0.00 | 0.00 | 99 | 1016.9 |
| 20260505093919 | 61 | 99 | 0.0 | 0.0 | 0.00 | 0.00 | 0.00 | 99 | 1016.9 |
| 20260505093416 | 61 | 99 | 0.0 | 0.0 | 0.00 | 0.00 | 0.00 | 99 | 1016.9 |
| 20260505092914 | 61 | 99 | 0.0 | 0.0 | 0.00 | 0.00 | 0.00 | 99 | 1016.9 |
| 20260505092412 | 62 | 99 | 0.0 | 0.0 | 0.00 | 0.00 | 0.00 | 99 | 1016.9 |
| 20260505091909 | 62 | 99 | 0.0 | 0.0 | 0.00 | 0.00 | 0.00 | 99 | 1016.5 |
| 20260505091406 | 61 | 99 | 0.0 | 0.0 | 0.00 | 0.00 | 0.00 | 99 | 1016.5 |
| 20260505090904 | 61 | 99 | 0.0 | 0.0 | 0.00 | 0.00 | 0.00 | 99 | 1016.5 |
| 20260505090402 | 61 | 99 | 0.0 | 0.0 | 0.00 | 0.00 | 0.00 | 99 | 1016.5 |
| 20260505085859 | 61 | 99 | 0.0 | 0.0 | 0.00 | 0.00 | 0.00 | 99 | 1016.5 |
| 20260505085357 | 61 | 99 | 0.0 | 0.0 | 0.00 | 0.00 | 0.00 | 99 | 1016.5 |
| 20260505084855 | 61 | 99 | 0.0 | 0.0 | 0.00 | 0.00 | 0.00 | 99 | 1016.9 |
| 20260505084353 | 61 | 99 | 0.0 | 0.0 | 0.00 | 0.00 | 0.00 | 99 | 1016.9 |
| 20260505083850 | 61 | 99 | 0.0 | 0.0 | 0.00 | 0.00 | 0.00 | 99 | 1016.5 |
| 20260505083348 | 61 | 99 | 0.0 | 0.0 | 0.00 | 0.00 | 0.00 | 99 | 1016.9 |
| 20260505082844 | 61 | 99 | 0.0 | 0.0 | 0.00 | 0.00 | 0.00 | 99 | 1016.2 |
| 20260505082340 | 61 | 99 | 0.0 | 0.0 | 0.00 | 0.00 | 0.00 | 99 | 1016.5 |
| 20260505081837 | 61 | 99 | 0.0 | 0.0 | 0.00 | 0.00 | 0.00 | 99 | 1016.5 |
| 20260505081333 | 61 | 99 | 0.0 | 0.0 | 0.00 | 0.00 | 0.00 | 98 | 1016.5 |
| 20260505080830 | 61 | 99 | 0.0 | 0.0 | 0.00 | 0.00 | 0.00 | 98 | 1016.9 |
| 20260505080326 | 61 | 99 | 0.0 | 0.0 | 0.00 | 0.00 | 0.00 | 98 | 1016.5 |
| 20260505075821 | 62 | 99 | 0.0 | 0.0 | 0.00 | 0.00 | 0.00 | 98 | 1016.5 |
| 20260505075319 | 62 | 99 | 0.0 | 0.0 | 0.00 | 0.00 | 0.00 | 98 | 1016.5 |
| 20260505074816 | 62 | 99 | 0.0 | 0.0 | 0.00 | 0.00 | 0.00 | 98 | 1016.9 |
| 20260505074313 | 61 | 99 | 0.0 | 0.0 | 0.00 | 0.00 | 0.00 | 98 | 1016.5 |
| 20260505073811 | 62 | 99 | 0.0 | 0.0 | 0.00 | 0.00 | 0.00 | 98 | 1016.9 |
| 20260505073309 | 62 | 99 | 0.0 | 0.0 | 0.00 | 0.00 | 0.00 | 98 | 1017.2 |
| 20260505072805 | 62 | 99 | 0.0 | 0.0 | 0.00 | 0.00 | 0.00 | 98 | 1016.9 |
| 20260505072301 | 62 | 99 | 0.0 | 0.0 | 0.00 | 0.00 | 0.00 | 97 | 1016.5 |
| 20260505071757 | 62 | 99 | 0.0 | 0.0 | 0.00 | 0.00 | 0.00 | 97 | 1016.9 |
| 20260505071254 | 62 | 99 | 0.0 | 0.0 | 0.00 | 0.00 | 0.00 | 97 | 1016.9 |
| 20260505070752 | 62 | 99 | 0.0 | 0.0 | 0.00 | 0.00 | 0.00 | 97 | 1016.9 |
| 20260505070248 | 62 | 99 | 0.0 | 0.0 | 0.00 | 0.00 | 0.00 | 96 | 1016.5 |
| 20260505065743 | 62 | 99 | 0.0 | 0.0 | 0.00 | 0.00 | 0.00 | 96 | 1016.9 |
| 20260505065240 | 62 | 99 | 0.0 | 0.0 | 0.00 | 0.00 | 0.00 | 95 | 1017.2 |
| 20260505064737 | 62 | 99 | 0.0 | 0.0 | 0.00 | 0.00 | 0.00 | 95 | 1016.9 |
| 20260505064235 | 62 | 99 | 0.0 | 0.0 | 0.00 | 0.00 | 0.00 | 94 | 1017.2 |
| 20260505063732 | 63 | 99 | 0.0 | 0.0 | 0.00 | 0.00 | 0.00 | 94 | 1017.2 |
| 20260505063228 | 63 | 99 | 0.0 | 0.0 | 0.00 | 0.00 | 0.00 | 94 | 1016.9 |
| 20260505062725 | 63 | 99 | 0.0 | 0.0 | 0.00 | 0.00 | 0.00 | 93 | 1017.2 |
| 20260505062223 | 63 | 99 | 0.0 | 0.0 | 0.00 | 0.00 | 0.00 | 93 | 1017.5 |
| 20260505061719 | 64 | 99 | 0.0 | 0.0 | 0.00 | 0.00 | 0.00 | 92 | 1017.2 |
| 20260505061217 | 64 | 99 | 0.0 | 0.0 | 0.00 | 0.00 | 0.00 | 92 | 1017.2 |
| 20260505060715 | 64 | 99 | 0.0 | 0.0 | 0.00 | 0.00 | 0.00 | 92 | 1017.2 |
| 20260505060211 | 64 | 99 | 0.0 | 0.0 | 0.00 | 0.00 | 0.00 | 92 | 1017.2 |
| 20260505055707 | 64 | 99 | 0.0 | 0.0 | 0.00 | 0.00 | 0.00 | 91 | 1017.5 |
| 20260505055203 | 64 | 99 | 0.0 | 0.0 | 0.00 | 0.00 | 0.00 | 90 | 1017.5 |
| 20260505054701 | 64 | 99 | 0.0 | 0.0 | 0.00 | 0.00 | 0.00 | 90 | 1017.2 |
| 20260505054158 | 65 | 99 | 0.0 | 0.0 | 0.00 | 0.00 | 0.00 | 89 | 1017.5 |
| 20260505053656 | 65 | 99 | 0.0 | 0.0 | 0.00 | 0.00 | 0.00 | 89 | 1017.9 |
| 20260505053152 | 65 | 99 | 0.0 | 0.0 | 0.00 | 0.00 | 0.00 | 89 | 1017.5 |
| 20260505052649 | 65 | 98 | 0.0 | 0.0 | 0.00 | 0.00 | 0.00 | 88 | 1017.9 |
| 20260505052147 | 65 | 98 | 0.0 | 0.0 | 0.00 | 0.00 | 0.00 | 88 | 1017.9 |
| 20260505051643 | 66 | 99 | 0.0 | 0.0 | 0.00 | 0.00 | 0.00 | 88 | 1018.2 |
| 20260505051142 | 66 | 99 | 0.0 | 0.0 | 0.00 | 0.00 | 0.00 | 86 | 1017.9 |
| 20260505050639 | 66 | 99 | 0.0 | 0.0 | 0.00 | 0.00 | 0.00 | 86 | 1018.2 |
| 20260505050138 | 66 | 99 | 0.0 | 0.0 | 0.00 | 0.00 | 0.00 | 86 | 1017.9 |
| 20260505041607 | 67 | 75 | 0.0 | 1.0 | 0.00 | 0.00 | 0.00 | 84 | 1018.2 |
| 20260505041104 | 67 | 116 | 1.0 | 1.0 | 0.00 | 0.00 | 0.00 | 84 | 1017.9 |
| 20260505040602 | 68 | 79 | 1.0 | 1.0 | 0.00 | 0.00 | 0.00 | 83 | 1018.2 |
| 20260505040059 | 68 | 68 | 1.0 | 2.0 | 0.00 | 0.00 | 0.00 | 83 | 1018.2 |
| 20260505035555 | 68 | 58 | 2.0 | 2.0 | 0.00 | 0.00 | 0.00 | 83 | 1018.2 |
| 20260505035051 | 68 | 82 | 3.0 | 5.0 | 0.00 | 0.00 | 0.00 | 83 | 1018.2 |
| 20260505034548 | 68 | 75 | 1.0 | 2.0 | 0.00 | 0.00 | 0.00 | 83 | 1018.2 |
| 20260505034044 | 68 | 88 | 2.0 | 2.0 | 0.00 | 0.00 | 0.00 | 83 | 1018.2 |
| 20260505033542 | 68 | 73 | 4.0 | 5.0 | 0.00 | 0.00 | 0.00 | 83 | 1018.2 |
| 20260505033040 | 68 | 115 | 3.0 | 5.0 | 0.00 | 0.00 | 0.00 | 83 | 1018.2 |
| 20260505032537 | 68 | 62 | 1.0 | 1.0 | 0.00 | 0.00 | 0.00 | 82 | 1018.6 |
| 20260505032034 | 68 | 79 | 2.0 | 3.0 | 0.00 | 0.00 | 0.00 | 82 | 1018.6 |
| 20260505031531 | 68 | 111 | 2.0 | 2.0 | 0.00 | 0.00 | 0.00 | 82 | 1018.6 |
| 20260505031027 | 68 | 56 | 4.0 | 5.0 | 0.00 | 0.00 | 0.00 | 82 | 1018.9 |
| 20260505030524 | 68 | 47 | 4.0 | 5.0 | 0.00 | 0.00 | 0.00 | 82 | 1018.6 |
| 20260505030020 | 68 | 73 | 3.0 | 3.0 | 0.00 | 0.00 | 0.00 | 82 | 1018.6 |
| 20260505025516 | 68 | 63 | 1.0 | 2.0 | 0.00 | 0.00 | 0.00 | 81 | 1018.9 |
| 20260505025016 | 68 | 75 | 3.0 | 3.0 | 0.00 | 0.00 | 0.00 | 81 | 1018.9 |
| 20260505024512 | 68 | 57 | 2.0 | 2.0 | 0.00 | 0.00 | 0.00 | 81 | 1018.9 |
| 20260505024009 | 68 | 54 | 3.0 | 3.0 | 0.00 | 0.00 | 0.00 | 80 | 1018.6 |
| 20260505023506 | 68 | 74 | 2.0 | 3.0 | 0.00 | 0.00 | 0.00 | 80 | 1018.6 |
| 20260505023004 | 69 | 75 | 2.0 | 2.0 | 0.00 | 0.00 | 0.00 | 81 | 1018.6 |
| 20260505022501 | 69 | 91 | 1.0 | 2.0 | 0.00 | 0.00 | 0.00 | 80 | 1018.9 |
| 20260505021958 | 69 | 132 | 0.0 | 1.0 | 0.00 | 0.00 | 0.00 | 80 | 1018.6 |
| 20260505021454 | 69 | 79 | 0.0 | 1.0 | 0.00 | 0.00 | 0.00 | 79 | 1018.6 |
| 20260505020950 | 69 | 67 | 2.0 | 2.0 | 0.00 | 0.00 | 0.00 | 79 | 1018.6 |
| 20260505020445 | 69 | 55 | 3.0 | 3.0 | 0.00 | 0.00 | 0.00 | 79 | 1018.2 |
| 20260505015943 | 69 | 60 | 1.0 | 2.0 | 0.00 | 0.00 | 0.00 | 79 | 1018.2 |
| 20260505015440 | 69 | 65 | 2.0 | 3.0 | 0.00 | 0.00 | 0.00 | 78 | 1018.6 |
| 20260505014937 | 69 | 86 | 3.0 | 3.0 | 0.00 | 0.00 | 0.00 | 78 | 1018.2 |
| 20260505014434 | 69 | 80 | 2.0 | 2.0 | 0.00 | 0.00 | 0.00 | 78 | 1018.2 |
| 20260505013931 | 69 | 65 | 4.0 | 6.0 | 0.00 | 0.00 | 0.00 | 78 | 1018.2 |
| 20260505013428 | 69 | 58 | 4.0 | 5.0 | 0.00 | 0.00 | 0.00 | 77 | 1018.2 |
| 20260505012925 | 69 | 66 | 2.0 | 3.0 | 0.00 | 0.00 | 0.00 | 77 | 1018.2 |
| 20260505012423 | 70 | 56 | 2.0 | 2.0 | 0.00 | 0.00 | 0.00 | 76 | 1018.2 |
| 20260505011920 | 70 | 67 | 3.0 | 3.0 | 0.00 | 0.00 | 0.00 | 76 | 1018.2 |
| 20260505011416 | 70 | 85 | 3.0 | 3.0 | 0.00 | 0.00 | 0.00 | 75 | 1017.9 |
| 20260505010913 | 70 | 76 | 2.0 | 2.0 | 0.00 | 0.00 | 0.00 | 75 | 1018.2 |
| 20260505010409 | 70 | 57 | 4.0 | 5.0 | 0.00 | 0.00 | 0.00 | 74 | 1017.9 |
| 20260505005904 | 71 | 86 | 3.0 | 3.0 | 0.00 | 0.00 | 0.00 | 74 | 1017.9 |
| 20260505005402 | 71 | 62 | 3.0 | 3.0 | 0.00 | 0.00 | 0.00 | 74 | 1018.2 |
| 20260505004859 | 71 | 52 | 3.0 | 3.0 | 0.00 | 0.00 | 0.00 | 74 | 1017.9 |
| 20260505004355 | 71 | 66 | 3.0 | 5.0 | 0.00 | 0.00 | 0.00 | 73 | 1018.2 |
| 20260505003853 | 71 | 67 | 3.0 | 3.0 | 0.00 | 0.00 | 0.00 | 73 | 1017.9 |
| 20260505003350 | 71 | 66 | 1.0 | 2.0 | 0.00 | 0.00 | 0.00 | 72 | 1017.5 |
| 20260505002846 | 71 | 56 | 4.0 | 6.0 | 0.00 | 0.00 | 0.00 | 71 | 1017.5 |
| 20260505002342 | 71 | 62 | 3.0 | 3.0 | 0.00 | 0.00 | 0.00 | 71 | 1017.9 |
| 20260505001841 | 72 | 64 | 2.0 | 3.0 | 0.00 | 0.00 | 0.00 | 71 | 1017.5 |
| 20260505001338 | 72 | 42 | 5.0 | 6.0 | 0.00 | 0.00 | 0.00 | 70 | 1017.5 |
| 20260505000835 | 72 | 65 | 1.0 | 3.0 | 0.00 | 0.00 | 0.00 | 71 | 1017.5 |
| 20260505000333 | 72 | 49 | 6.0 | 6.0 | 0.00 | 0.00 | 0.00 | 69 | 1017.9 |
| 20260504235829 | 73 | 81 | 5.0 | 6.0 | 0.00 | 0.00 | 0.00 | 69 | 1017.5 |
| 20260504235326 | 73 | 59 | 5.0 | 7.0 | 0.00 | 0.00 | 0.00 | 69 | 1017.5 |
| 20260504234823 | 73 | 50 | 5.0 | 8.0 | 0.00 | 0.00 | 0.00 | 68 | 1017.5 |
| 20260504234321 | 73 | 77 | 8.0 | 10.0 | 0.00 | 0.00 | 0.00 | 68 | 1017.5 |
| 20260504233817 | 73 | 53 | 7.0 | 9.0 | 0.00 | 0.00 | 0.00 | 67 | 1017.2 |
| 20260504233313 | 74 | 82 | 4.0 | 6.0 | 0.00 | 0.00 | 0.00 | 67 | 1017.2 |
| 20260504232810 | 74 | 57 | 7.0 | 9.0 | 0.00 | 0.00 | 0.00 | 66 | 1017.2 |
| 20260504232307 | 74 | 97 | 6.0 | 8.0 | 0.00 | 0.00 | 0.00 | 67 | 1017.5 |
| 20260504231804 | 74 | 61 | 3.0 | 5.0 | 0.00 | 0.00 | 0.00 | 67 | 1017.2 |
| 20260504231300 | 74 | 38 | 6.0 | 9.0 | 0.00 | 0.00 | 0.00 | 66 | 1017.2 |
| 20260504230756 | 74 | 54 | 7.0 | 8.0 | 0.00 | 0.00 | 0.00 | 66 | 1017.2 |
| 20260504230254 | 75 | 59 | 8.0 | 10.0 | 0.00 | 0.00 | 0.00 | 65 | 1017.2 |
| 20260504225753 | 75 | 94 | 5.0 | 7.0 | 0.00 | 0.00 | 0.00 | 65 | 1017.2 |
| 20260504225249 | 75 | 45 | 11.0 | 13.0 | 0.00 | 0.00 | 0.00 | 65 | 1017.2 |
| 20260504224746 | 75 | 52 | 10.0 | 11.0 | 0.00 | 0.00 | 0.00 | 65 | 1017.2 |
| 20260504224243 | 75 | 54 | 5.0 | 6.0 | 0.00 | 0.00 | 0.00 | 65 | 1017.2 |
| 20260504223740 | 75 | 59 | 8.0 | 11.0 | 0.00 | 0.00 | 0.00 | 64 | 1017.2 |
| 20260504223235 | 76 | 84 | 4.0 | 7.0 | 0.00 | 0.00 | 0.00 | 64 | 1017.2 |
| 20260504222732 | 76 | 52 | 3.0 | 3.0 | 0.00 | 0.00 | 0.00 | 63 | 1017.2 |
| 20260504222229 | 75 | 53 | 5.0 | 7.0 | 0.00 | 0.00 | 0.00 | 63 | 1017.2 |
| 20260504221726 | 76 | 37 | 7.0 | 11.0 | 0.00 | 0.00 | 0.00 | 63 | 1016.9 |
| 20260504221218 | 76 | 54 | 8.0 | 9.0 | 0.00 | 0.00 | 0.00 | 63 | 1017.2 |
| 20260504220714 | 76 | 84 | 7.0 | 9.0 | 0.00 | 0.00 | 0.00 | 62 | 1017.2 |
| 20260504220212 | 76 | 87 | 9.0 | 10.0 | 0.00 | 0.00 | 0.00 | 62 | 1017.2 |
| 20260504215708 | 76 | 52 | 9.0 | 10.0 | 0.00 | 0.00 | 0.00 | 63 | 1017.2 |
| 20260504215206 | 76 | 46 | 6.0 | 8.0 | 0.00 | 0.00 | 0.00 | 61 | 1017.2 |
| 20260504214701 | 76 | 52 | 7.0 | 9.0 | 0.00 | 0.00 | 0.00 | 62 | 1017.2 |
| 20260504214158 | 76 | 62 | 9.0 | 13.0 | 0.00 | 0.00 | 0.00 | 62 | 1017.2 |
| 20260504213655 | 77 | 57 | 6.0 | 8.0 | 0.00 | 0.00 | 0.00 | 61 | 1017.2 |
| 20260504213151 | 77 | 87 | 5.0 | 8.0 | 0.00 | 0.00 | 0.00 | 61 | 1016.9 |
| 20260504212648 | 77 | 35 | 9.0 | 11.0 | 0.00 | 0.00 | 0.00 | 59 | 1017.2 |
| 20260504212144 | 77 | 94 | 5.0 | 8.0 | 0.00 | 0.00 | 0.00 | 58 | 1016.9 |
| 20260504211642 | 77 | 70 | 7.0 | 9.0 | 0.00 | 0.00 | 0.00 | 59 | 1017.2 |
| 20260504211138 | 77 | 78 | 4.0 | 5.0 | 0.00 | 0.00 | 0.00 | 59 | 1017.2 |
| 20260504210636 | 77 | 136 | 5.0 | 9.0 | 0.00 | 0.00 | 0.00 | 59 | 1017.2 |
| 20260504210132 | 77 | 66 | 9.0 | 10.0 | 0.00 | 0.00 | 0.00 | 58 | 1017.2 |
| 20260504205630 | 77 | 78 | 5.0 | 6.0 | 0.00 | 0.00 | 0.00 | 59 | 1017.2 |
| 20260504205127 | 77 | 54 | 6.0 | 9.0 | 0.00 | 0.00 | 0.00 | 59 | 1017.2 |
| 20260504204626 | 77 | 88 | 4.0 | 6.0 | 0.00 | 0.00 | 0.00 | 59 | 1016.9 |